Location: Siratepeler Tepesi
(39.1042°N, 32.0781°E)
Time: 02:35:52
(UTC+00:00)

Cosmos 1633 Rocket - Pass Details

Date: 11 April 2026
Orbit: 599 x 617 km, 82.5° (Epoch: 13 May)

Event Time Altitude Azimuth Distance (km) Brightness Sun altitude
Rises 17:09:24 0° 183° (S) 2,872 6.3 -9.1°
Reaches altitude 10° 17:11:36 10° 183° (S) 1,971 5.5 -9.5°
Maximum altitude 17:15:58 81° 98° (E) 628 3.0 -10.3°
Drops below altitude 10° 17:20:22 10° 9° (N) 1,981 5.8 -11.1°
Sets 17:22:36 0° 9° (N) 2,888 6.7 -11.5°
